Powrót do katalogu

STARLINK-37831

AktywnyŁącznośćSSO
NORAD 69489·PAYLOAD·🇺🇸 United States

Wystrzelony Jun 11, 2026 z Vandenberg Space Force Base

Loading…

Następne Przeloty (najbliższe 24 godziny)

TLE

ŚwieżeSource: CelesTrak SupGP

Epoka: Sep 15, 2026, 03:58 UTC

1 69489C 26131M   26258.16576389 -.00063370  00000+0 -19674-2 0  2584
2 69489  97.2833 279.1136 0001912 100.6265 143.9073 15.33466457    14

Śledź STARLINK-37831 w czasie rzeczywistym z AllMySat

Download on the App Store